SCP
0 -0 0 0 0 0 0 -0 -0 -0 -0 -0 0 -0 -0 -0 0 0 0 0 0 0 0 0 0 0 0 0 0 0 0 0 0 0 0 0 0 0
0 0 0 0 0 0 0 0 0 -0 -0 -0 -0 -0 -0 -0 -0 0 0 0 0 0 0 0 0 0 0 0 0 0 0 0 -0 0 0 0 0 0
0 0 -0 0 0 0 0 0 0 0 -0 0 -0 -0 -0 -0 0 -0 0 0 0 0 0 0 0 0 0 0 0 0 0 0 -0 -0 0 0 0 0
0 0 0 0 0 0 0 0 -0 -0 -0 -0 -0 -0 0 0 0 -0 -0 0 0 0 0 0 0 0 0 0 0 0 0 0 -0 -0 -0 0 0 0
0 0 0 0 0 0 0 -0 -0 -0 0 0 -0 -0 0 0 0 0 0 0 0 0 0 0 0 0 0 0 0 0 0 0 0 0 0 -0 -0 -0
0 0 0 0 0 0 0 0 0 0 -0 -0 0 0 0 0 -0 -0 -0 -0 -0 0 0 0 0 0 0 0 0 0 0 0 0 0 0 0 0 -0
-0 -0 0 0 0 0 0 0 0 0 0 0 0 0 -0 -0 -0 -0 -0 -0 -0 0 0 0 0 0 0 0 0 0 0 0 0 0 0 0 0 0
0 -0 -0 -0 -0 -0 0 0 0 0 0 0 0 0 0 0 0 -0 -0 0 0 0 0 -0 0 0 0 0 0 0 0 0 -0 -0 0 0 0 0
0 0 0 0 0 -0 -0 0 0 0 0 0 0 0 0 0 0 0 0 0 0 0 0 0 0 0 0 0 -0 0 0 0 0 -0 -0 0 0 0
0 0 0 0 0 0 0 0 0 0 0 0 0 0 0 0 0 0 0 0 0 1 1 0 0 -0 0 0 -0 0 0 0 0 0 0 0 0 0
0 0 0 0 0 0 0 0 0 1 1 0 0 0 0 0 0 1 1 1 0 0 0 0 0 0 0 0 0 0 0 0 0 0 0 0 0 0
0 0 0 0 0 0 0 1 -0 1 1 1 1 0 0 0 0 0 0 0 0 0 0 0 0 0 0 0 0 0 0 0 0 0 0 0 0 0
0 0 1 0 0 0 0 0 0 0 0 1 1 1 1 1 0 0 0 1 0 0 0 0 0 0 0 0 0 0 0 0 0 0 0 0 0 0
0 0 0 0 0 0 0 0 0 0 0 0 0 0 1 1 1 1 1 0 0 0 0 0 0 1 1 0 0 0 0 0 0 0 0 0 0 0
0 0 0 0 0 0 -0 -0 -0 0 0 0 0 0 0 0 1 0 0 0 0 0 0 1 1 1 1 1 1 0 0 0 0 0 0 0 0 0
0 0 0 0 -0 0 0 0 0 0 0 0 0 0 0 0 0 1 1 0 0 0 1 1 1 1 1 1 1 1 0 0 0 0 0 0 0 0
0 0 0 0 0 0 0 0 0 0 0 0 0 0 0 0 0 0 1 1 1 0 0 1 2 2 2 1 1 1 1 0 0 0 0 0 0 0
0 0 0 0 0 0 0 0 0 0 1 1 0 0 0 0 1 1 1 1 1 0 0 0 1 4 3 2 1 2 1 1 1 0 0 0 0 0
0 0 0 0 0 0 0 0 0 0 0 0 1 1 1 1 1 0 0 1 0 1 0 0 0 1 1 1 1 1 2 2 1 0 0 0 0 0
0 0 0 0 0 0 0 0 0 0 0 1 1 1 0 0 0 0 0 0 0 0 0 0 1 0 1 1 1 2 0 3 2 2 0 0 0 0
0 0 0 0 0 0 0 0 0 0 0 0 0 0 0 0 0 0 0 0 0 0 -0 0 0 0 0 1 2 3 2 0 2 2 1 0 0 0
0 0 0 0 0 0 0 0 0 0 0 0 0 0 0 0 0 0 0 0 0 0 0 0 0 1 1 1 1 1 1 1 0 0 0 0 0 0
0 0 -0 -0 0 0 0 0 0 0 0 0 0 0 0 0 0 0 0 0 0 0 0 0 0 0 1 1 1 1 1 1 1 0 0 0 0 0
Wind_Speed_500mb
23 18 14 10 9 11 2 10 12 20 22 5 20 17 27 36 45 36 42 27 31 39 40 44 56 59 54 60 47 33 25 21 26 31 26 26 38 39
21 24 24 21 12 8 18 14 14 21 31 29 26 30 37 42 26 32 34 33 30 38 37 38 51 54 56 56 51 36 24 20 25 32 29 28 37 36
21 23 23 23 28 21 19 17 21 24 26 33 34 37 33 26 20 26 31 28 31 32 38 29 40 48 51 55 53 39 24 20 23 24 25 26 34 36
14 30 27 25 26 27 36 32 32 27 30 32 35 30 23 22 30 28 23 22 27 27 32 31 33 41 40 48 53 46 27 17 16 17 22 26 33 32
12 14 15 18 16 15 20 28 31 33 32 33 39 33 29 31 29 19 15 24 26 28 28 23 31 43 36 34 47 45 36 15 7 11 16 25 32 35
28 25 20 20 20 21 25 28 29 33 37 41 38 30 27 27 31 34 33 36 29 30 33 30 35 30 35 30 35 43 34 27 6 7 12 22 30 35
31 30 31 29 28 30 32 36 35 31 31 36 37 35 34 37 41 40 39 41 37 28 23 33 30 20 28 30 30 36 31 28 21 8 12 19 30 37
33 31 31 33 35 36 37 41 32 35 38 44 46 47 42 38 37 41 42 43 46 27 33 14 19 24 30 29 27 30 31 25 26 19 15 21 26 38
43 45 42 38 40 39 37 41 49 45 43 42 48 49 49 40 33 34 37 41 44 39 35 37 20 29 30 35 32 26 27 25 26 24 20 21 27 35
56 57 58 58 56 47 46 53 54 52 48 48 48 46 40 39 37 41 45 50 55 53 47 53 35 34 33 32 31 26 31 30 25 22 23 23 24 32
64 64 64 65 63 63 63 65 65 65 62 62 64 65 60 54 49 50 54 56 66 61 44 45 33 33 33 23 29 32 35 36 31 24 20 25 23 28
58 61 61 65 67 66 65 66 71 73 73 75 77 77 75 74 70 67 64 63 64 69 46 39 38 29 41 47 39 36 38 41 35 30 23 24 27 30
64 64 59 57 59 58 55 56 62 60 64 69 70 70 69 67 65 61 61 61 63 68 57 52 62 55 45 43 50 49 38 37 36 34 32 28 29 33
56 59 61 63 65 65 57 53 57 64 77 83 84 84 83 80 73 67 65 64 64 71 67 64 69 61 58 57 55 56 61 60 52 43 38 36 34 36
50 54 61 68 70 71 71 76 78 78 73 71 72 79 83 84 84 81 77 75 77 77 78 80 77 66 65 66 63 56 46 43 49 52 51 44 39 36
48 51 55 63 71 71 68 62 60 67 81 92 96 94 91 88 88 88 88 87 86 83 72 74 78 73 76 66 59 61 63 58 50 49 51 49 46 41
52 55 59 62 65 69 71 70 67 66 66 66 70 76 84 94 98 96 93 87 83 77 71 66 56 64 75 70 71 65 62 64 61 57 57 60 58 53
55 55 57 56 58 59 65 70 72 71 71 71 74 72 72 73 76 78 76 78 78 76 72 61 65 65 64 74 72 73 70 64 61 62 63 65 68 63
56 55 54 52 51 50 52 55 61 65 72 78 76 73 75 75 69 65 63 66 69 70 72 68 54 62 70 80 75 73 72 66 60 64 69 74 72 61
56 57 51 50 51 52 46 47 51 55 56 64 70 67 65 67 78 71 66 71 59 76 82 73 70 68 75 83 85 85 74 73 61 58 61 69 70 73
53 55 55 59 56 55 55 53 50 57 53 51 59 65 64 72 65 65 70 87 86 102 103 96 85 70 71 73 83 83 75 66 58 63 60 68 69 71
57 59 69 76 74 64 59 56 52 54 54 63 66 59 71 65 65 52 50 68 73 87 107 99 82 63 66 73 66 66 60 65 64 53 55 58 65 72
58 64 69 79 77 73 67 62 54 56 58 63 59 53 45 53 65 70 79 85 83 78 84 83 66 67 67 61 59 66 67 65 63 67 67 57 56 56
Wind_Direction_500mb
210 201 185 131 116 101 146 282 338 341 311 291 337 309 322 329 333 2 5 2 18 11 5 9 10 12 14 15 22 40 66 103 146 151 146 162 171 168
223 228 231 232 219 238 240 247 258 295 292 294 293 306 310 312 330 355 6 14 13 1 360 7 8 12 16 17 21 35 60 94 139 144 154 159 170 170
228 232 236 244 243 232 231 235 252 263 283 284 295 298 305 333 346 344 358 352 2 3 360 354 1 8 14 17 21 28 51 91 141 145 145 154 173 177
231 232 241 256 274 260 241 250 257 263 288 291 294 303 338 349 332 320 322 338 349 2 348 343 352 2 5 12 18 19 33 77 142 143 160 157 173 177
247 243 249 252 266 283 275 268 263 261 271 289 293 304 320 334 331 322 314 315 327 336 338 354 344 350 350 353 6 11 15 29 106 172 166 171 180 185
253 254 256 276 288 290 290 298 295 277 271 277 286 296 296 319 311 316 312 313 315 320 317 325 333 338 344 333 351 5 6 5 353 204 199 189 193 197
253 249 257 263 274 282 278 288 295 287 281 282 287 288 292 294 298 311 313 309 314 322 310 315 321 324 330 337 332 350 1 358 349 287 235 224 206 206
268 257 254 251 256 263 276 286 294 286 284 281 285 287 292 297 303 308 312 318 320 337 325 315 312 310 311 312 318 334 356 353 351 335 267 242 228 212
261 270 273 265 261 259 264 276 276 277 279 284 286 289 294 301 304 309 311 310 310 316 316 306 290 313 320 298 293 311 332 347 343 334 321 269 243 224
252 257 264 270 272 271 267 269 272 274 273 274 279 288 292 297 296 303 302 302 306 311 311 299 300 294 303 313 285 299 308 316 324 321 315 300 260 233
252 257 261 265 266 269 271 268 269 272 277 278 280 283 286 288 289 289 289 296 301 310 317 312 313 286 291 302 292 289 299 303 297 307 304 301 283 245
262 262 262 267 270 270 272 274 276 276 278 280 281 282 282 282 282 280 283 285 291 297 306 301 311 311 288 282 284 279 281 285 286 285 295 292 284 274
266 267 267 270 270 269 267 271 276 283 282 282 283 284 284 283 284 283 281 278 280 280 291 294 295 292 279 281 280 277 277 277 280 279 281 289 284 276
265 263 264 263 262 259 259 259 263 269 270 272 274 277 281 283 285 288 292 290 284 278 285 283 287 281 277 283 285 280 273 272 275 274 275 278 282 274
269 267 269 269 269 270 267 261 262 266 269 271 273 273 274 279 282 284 287 287 286 285 275 272 275 274 276 278 280 282 279 280 274 271 273 273 274 282
281 277 276 279 276 276 275 273 274 276 273 273 272 273 277 277 279 282 284 288 290 287 277 269 268 267 272 275 276 277 277 272 279 277 275 269 262 277
287 291 291 288 288 285 287 289 286 287 286 286 283 282 278 277 278 281 284 286 284 282 277 270 263 267 266 268 270 275 276 272 274 276 271 271 269 268
289 291 291 296 302 305 296 288 284 285 284 287 288 290 288 281 279 280 284 284 282 278 275 273 270 267 261 265 261 268 271 271 273 273 274 272 272 271
302 300 294 296 301 308 309 299 294 291 286 282 283 283 281 280 276 275 277 285 280 279 268 267 265 260 258 259 268 267 266 269 273 273 272 273 277 286
296 298 296 295 299 302 310 312 313 306 296 289 285 287 284 276 274 277 280 258 271 285 276 265 261 260 259 259 265 268 269 272 264 268 275 279 278 277
284 291 296 301 299 299 302 300 293 287 306 293 293 288 286 281 282 277 271 259 277 255 268 268 262 264 265 270 266 265 268 263 264 281 281 273 271 270
279 287 293 300 299 296 297 296 296 289 291 286 293 297 280 276 271 264 276 263 260 247 266 267 261 264 265 262 262 263 251 258 274 274 272 268 265 264
270 283 293 296 293 293 293 291 289 286 279 284 290 284 284 275 275 275 272 274 280 256 251 250 255 253 254 257 257 259 263 270 275 278 272 270 270 270
Wind_Speed_850mb
23 18 14 10 9 11 2 10 12 20 22 5 20 17 27 36 45 36 42 27 31 39 40 44 56 59 54 60 47 33 25 21 26 31 26 26 38 39
21 24 24 21 12 8 18 14 14 21 31 29 26 30 37 42 26 32 34 33 30 38 37 38 51 54 56 56 51 36 24 20 25 32 29 28 37 36
21 23 23 23 28 21 19 17 21 24 26 33 34 37 33 26 20 26 31 28 31 32 38 29 40 48 51 55 53 39 24 20 23 24 25 26 34 36
14 30 27 25 26 27 36 32 32 27 30 32 35 30 23 22 30 28 23 22 27 27 32 31 33 41 40 48 53 46 27 17 16 17 22 26 33 32
12 14 15 18 16 15 20 28 31 33 32 33 39 33 29 31 29 19 15 24 26 28 28 23 31 43 36 34 47 45 36 15 7 11 16 25 32 35
28 25 20 20 20 21 25 28 29 33 37 41 38 30 27 27 31 34 33 36 29 30 33 30 35 30 35 30 35 43 34 27 6 7 12 22 30 35
31 30 31 29 28 30 32 36 35 31 31 36 37 35 34 37 41 40 39 41 37 28 23 33 30 20 28 30 30 36 31 28 21 8 12 19 30 37
33 31 31 33 35 36 37 41 32 35 38 44 46 47 42 38 37 41 42 43 46 27 33 14 19 24 30 29 27 30 31 25 26 19 15 21 26 38
43 45 42 38 40 39 37 41 49 45 43 42 48 49 49 40 33 34 37 41 44 39 35 37 20 29 30 35 32 26 27 25 26 24 20 21 27 35
56 57 58 58 56 47 46 53 54 52 48 48 48 46 40 39 37 41 45 50 55 53 47 53 35 34 33 32 31 26 31 30 25 22 23 23 24 32
64 64 64 65 63 63 63 65 65 65 62 62 64 65 60 54 49 50 54 56 66 61 44 45 33 33 33 23 29 32 35 36 31 24 20 25 23 28
58 61 61 65 67 66 65 66 71 73 73 75 77 77 75 74 70 67 64 63 64 69 46 39 38 29 41 47 39 36 38 41 35 30 23 24 27 30
64 64 59 57 59 58 55 56 62 60 64 69 70 70 69 67 65 61 61 61 63 68 57 52 62 55 45 43 50 49 38 37 36 34 32 28 29 33
56 59 61 63 65 65 57 53 57 64 77 83 84 84 83 80 73 67 65 64 64 71 67 64 69 61 58 57 55 56 61 60 52 43 38 36 34 36
50 54 61 68 70 71 71 76 78 78 73 71 72 79 83 84 84 81 77 75 77 77 78 80 77 66 65 66 63 56 46 43 49 52 51 44 39 36
48 51 55 63 71 71 68 62 60 67 81 92 96 94 91 88 88 88 88 87 86 83 72 74 78 73 76 66 59 61 63 58 50 49 51 49 46 41
52 55 59 62 65 69 71 70 67 66 66 66 70 76 84 94 98 96 93 87 83 77 71 66 56 64 75 70 71 65 62 64 61 57 57 60 58 53
55 55 57 56 58 59 65 70 72 71 71 71 74 72 72 73 76 78 76 78 78 76 72 61 65 65 64 74 72 73 70 64 61 62 63 65 68 63
56 55 54 52 51 50 52 55 61 65 72 78 76 73 75 75 69 65 63 66 69 70 72 68 54 62 70 80 75 73 72 66 60 64 69 74 72 61
56 57 51 50 51 52 46 47 51 55 56 64 70 67 65 67 78 71 66 71 59 76 82 73 70 68 75 83 85 85 74 73 61 58 61 69 70 73
53 55 55 59 56 55 55 53 50 57 53 51 59 65 64 72 65 65 70 87 86 102 103 96 85 70 71 73 83 83 75 66 58 63 60 68 69 71
57 59 69 76 74 64 59 56 52 54 54 63 66 59 71 65 65 52 50 68 73 87 107 99 82 63 66 73 66 66 60 65 64 53 55 58 65 72
58 64 69 79 77 73 67 62 54 56 58 63 59 53 45 53 65 70 79 85 83 78 84 83 66 67 67 61 59 66 67 65 63 67 67 57 56 56
Wind_Direction_850mb
210 201 185 131 116 101 146 282 338 341 311 291 337 309 322 329 333 2 5 2 18 11 5 9 10 12 14 15 22 40 66 103 146 151 146 162 171 168
223 228 231 232 219 238 240 247 258 295 292 294 293 306 310 312 330 355 6 14 13 1 360 7 8 12 16 17 21 35 60 94 139 144 154 159 170 170
228 232 236 244 243 232 231 235 252 263 283 284 295 298 305 333 346 344 358 352 2 3 360 354 1 8 14 17 21 28 51 91 141 145 145 154 173 177
231 232 241 256 274 260 241 250 257 263 288 291 294 303 338 349 332 320 322 338 349 2 348 343 352 2 5 12 18 19 33 77 142 143 160 157 173 177
247 243 249 252 266 283 275 268 263 261 271 289 293 304 320 334 331 322 314 315 327 336 338 354 344 350 350 353 6 11 15 29 106 172 166 171 180 185
253 254 256 276 288 290 290 298 295 277 271 277 286 296 296 319 311 316 312 313 315 320 317 325 333 338 344 333 351 5 6 5 353 204 199 189 193 197
253 249 257 263 274 282 278 288 295 287 281 282 287 288 292 294 298 311 313 309 314 322 310 315 321 324 330 337 332 350 1 358 349 287 235 224 206 206
268 257 254 251 256 263 276 286 294 286 284 281 285 287 292 297 303 308 312 318 320 337 325 315 312 310 311 312 318 334 356 353 351 335 267 242 228 212
261 270 273 265 261 259 264 276 276 277 279 284 286 289 294 301 304 309 311 310 310 316 316 306 290 313 320 298 293 311 332 347 343 334 321 269 243 224
252 257 264 270 272 271 267 269 272 274 273 274 279 288 292 297 296 303 302 302 306 311 311 299 300 294 303 313 285 299 308 316 324 321 315 300 260 233
252 257 261 265 266 269 271 268 269 272 277 278 280 283 286 288 289 289 289 296 301 310 317 312 313 286 291 302 292 289 299 303 297 307 304 301 283 245
262 262 262 267 270 270 272 274 276 276 278 280 281 282 282 282 282 280 283 285 291 297 306 301 311 311 288 282 284 279 281 285 286 285 295 292 284 274
266 267 267 270 270 269 267 271 276 283 282 282 283 284 284 283 284 283 281 278 280 280 291 294 295 292 279 281 280 277 277 277 280 279 281 289 284 276
265 263 264 263 262 259 259 259 263 269 270 272 274 277 281 283 285 288 292 290 284 278 285 283 287 281 277 283 285 280 273 272 275 274 275 278 282 274
269 267 269 269 269 270 267 261 262 266 269 271 273 273 274 279 282 284 287 287 286 285 275 272 275 274 276 278 280 282 279 280 274 271 273 273 274 282
281 277 276 279 276 276 275 273 274 276 273 273 272 273 277 277 279 282 284 288 290 287 277 269 268 267 272 275 276 277 277 272 279 277 275 269 262 277
287 291 291 288 288 285 287 289 286 287 286 286 283 282 278 277 278 281 284 286 284 282 277 270 263 267 266 268 270 275 276 272 274 276 271 271 269 268
289 291 291 296 302 305 296 288 284 285 284 287 288 290 288 281 279 280 284 284 282 278 275 273 270 267 261 265 261 268 271 271 273 273 274 272 272 271
302 300 294 296 301 308 309 299 294 291 286 282 283 283 281 280 276 275 277 285 280 279 268 267 265 260 258 259 268 267 266 269 273 273 272 273 277 286
296 298 296 295 299 302 310 312 313 306 296 289 285 287 284 276 274 277 280 258 271 285 276 265 261 260 259 259 265 268 269 272 264 268 275 279 278 277
284 291 296 301 299 299 302 300 293 287 306 293 293 288 286 281 282 277 271 259 277 255 268 268 262 264 265 270 266 265 268 263 264 281 281 273 271 270
279 287 293 300 299 296 297 296 296 289 291 286 293 297 280 276 271 264 276 263 260 247 266 267 261 264 265 262 262 263 251 258 274 274 272 268 265 264
270 283 293 296 293 293 293 291 289 286 279 284 290 284 284 275 275 275 272 274 280 256 251 250 255 253 254 257 257 259 263 270 275 278 272 270 270 270